Weather History for EIDW - June, 2013

Change the Weather History Date:

Wednesday, June 26, 2013

  Actual Average Record
Temperature  
Mean Temperature 56 °F -  
Max Temperature 65 °F 66 °F 73 °F (2011)
Min Temperature 48 °F 52 °F 44 °F (2000)
Degree Days  
Heating Degree Days 8    
Growing Degree Days 6 (Base 50)    
Moisture  
Dew Point 48 °F    
Average Humidity 72    
Maximum Humidity 94    
Minimum Humidity 44    
Precipitation  
Precipitation 0.00 in 0.07 in - ()
Sea Level Pressure  
Sea Level Pressure 30.48 in    
Wind  
Wind Speed 7 mph ()    
Max Wind Speed 13 mph    
Max Gust Speed -    
Visibility 6.2 miles    
Events      
Averages and records for this station are not official NWS values.
T = Trace of Precipitation, MM = Missing Value Source: Averaged Metar Reports

Daily Weather History Graph

Daily Weather History Graph

Search for Another Location

Airport or City:

Trip Planner

Search our weather history database for the weather conditions in past years. The results will help you decide how hot, cold, wet, or windy it might be!

Date:

Astronomy

Jun. 26, 2013 Rise Set
Actual Time 4:58 AM IST 9:57 PM IST
Civil Twilight 4:05 AM IST 10:50 PM IST
Nautical Twilight 2:31 AM IST 12:23 AM IST
Astronomical Twilight Sun does not rise Sun does not rise
Moon 11:31 PM IST (6/26) 9:07 AM IST (6/26)
Length of Visible Light 18h 44m
Length of Day
16h 59m
Waning Gibbous, 87% of the Moon is Illuminated
Jun 26
Waning Gibbous
Jun 30
Last Quarter
Jul 8
New
Jul 16
First Quarter
Jul 22
Full

Hourly Weather History & Observations

Time (IST) Temp. Dew Point Humidity Pressure Visibility Wind Dir Wind Speed Gust Speed Precip Events Conditions
12:00 AM 55.4 °F 51.8 °F 88% 30.42 in 6.2 mi NW 6.9 mph - N/A   Mostly Cloudy
12:30 AM 53.6 °F 51.8 °F 94% 30.45 in 6.2 mi NW 4.6 mph - N/A   Mostly Cloudy
1:00 AM 55 °F 52 °F 88% 30.46 in 31 mi WNW 6.7 mph - -   Mostly Cloudy
1:00 AM 55.4 °F 51.8 °F 88% 30.45 in 6.2 mi WNW 4.6 mph - N/A   Mostly Cloudy
1:30 AM 55.4 °F 51.8 °F 88% 30.45 in 6.2 mi WNW 9.2 mph - N/A   Mostly Cloudy
2:00 AM 55.4 °F 50.0 °F 82% 30.45 in 6.2 mi NW 8.1 mph - N/A   Mostly Cloudy
2:30 AM 53.6 °F 50.0 °F 88% 30.45 in 6.2 mi NW 9.2 mph - N/A   Mostly Cloudy
3:00 AM 53.6 °F 50.0 °F 88% 30.45 in 6.2 mi NW 8.1 mph - N/A   Mostly Cloudy
3:30 AM 53.6 °F 50.0 °F 88% 30.45 in 6.2 mi NW 6.9 mph - N/A   Mostly Cloudy
4:00 AM 53.6 °F 50.0 °F 88% 30.45 in 6.2 mi WNW 5.8 mph - N/A   Scattered Clouds
4:30 AM 50.0 °F 48.2 °F 94% 30.45 in 6.2 mi NW 6.9 mph - N/A   Scattered Clouds
5:00 AM 50.0 °F 48.2 °F 94% 30.48 in 6.2 mi NW 4.6 mph - N/A   Mostly Cloudy
5:30 AM 51.8 °F 48.2 °F 88% 30.48 in 6.2 mi NNW 6.9 mph - N/A   Mostly Cloudy
6:00 AM 51.8 °F 48.2 °F 88% 30.48 in 6.2 mi NNW 6.9 mph - N/A   Mostly Cloudy
6:30 AM 51.8 °F 48.2 °F 88% 30.48 in 6.2 mi NNW 8.1 mph - N/A   Mostly Cloudy
7:00 AM 52 °F 47 °F 79% 30.50 in 31 mi NNW 6.7 mph - -   Partly Cloudy
7:00 AM 51.8 °F 48.2 °F 88% 30.48 in 6.2 mi NNW 5.8 mph - N/A   Mostly Cloudy
7:30 AM 53.6 °F 48.2 °F 82% 30.48 in 6.2 mi NNW 10.4 mph - N/A   Mostly Cloudy
8:00 AM 53.6 °F 48.2 °F 82% 30.51 in 6.2 mi North 8.1 mph - N/A   Scattered Clouds
8:30 AM 55.4 °F 48.2 °F 77% 30.51 in 6.2 mi North 6.9 mph - N/A   Scattered Clouds
9:00 AM 57.2 °F 48.2 °F 72% 30.51 in 6.2 mi North 8.1 mph - N/A   Scattered Clouds
9:30 AM 57.2 °F 46.4 °F 67% 30.51 in 6.2 mi North 8.1 mph - N/A   Scattered Clouds
10:00 AM 59.0 °F 44.6 °F 59% 30.51 in 6.2 mi NNW 8.1 mph - N/A   Partly Cloudy
10:30 AM 59.0 °F 46.4 °F 63% 30.51 in 6.2 mi NW 8.1 mph - N/A   Partly Cloudy
11:00 AM 59.0 °F 46.4 °F 63% 30.51 in 6.2 mi NW 6.9 mph - N/A   Scattered Clouds
11:30 AM 60.8 °F 46.4 °F 59% 30.51 in 6.2 mi NNW 8.1 mph - N/A   Scattered Clouds
12:00 PM 60.8 °F 44.6 °F 55% 30.51 in 6.2 mi WNW 9.2 mph - N/A   Mostly Cloudy
12:30 PM 60.8 °F 46.4 °F 59% 30.51 in 6.2 mi NW 9.2 mph - N/A   Mostly Cloudy
1:00 PM 62 °F 46 °F 44% 30.52 in 25 mi WNW 6.7 mph - -   Mostly Cloudy
1:00 PM 62.6 °F 46.4 °F 55% 30.51 in 6.2 mi WNW 8.1 mph - N/A   Mostly Cloudy
1:30 PM 62.6 °F 46.4 °F 55% 30.51 in 6.2 mi WNW 8.1 mph - N/A   Mostly Cloudy
2:00 PM 64.4 °F 46.4 °F 52% 30.48 in 6.2 mi NW 6.9 mph - N/A   Scattered Clouds
2:30 PM 64.4 °F 44.6 °F 49% 30.48 in 6.2 mi NW 8.1 mph - N/A   Scattered Clouds
3:00 PM 62.6 °F 50.0 °F 63% 30.51 in 6.2 mi WNW 10.4 mph - N/A   Mostly Cloudy
3:30 PM 62.6 °F 48.2 °F 59% 30.51 in 6.2 mi NW 9.2 mph - N/A   Mostly Cloudy
4:00 PM 64.4 °F 48.2 °F 56% 30.51 in 6.2 mi WNW 6.9 mph - N/A   Mostly Cloudy
4:30 PM 64.4 °F 50.0 °F 59% 30.51 in 6.2 mi WNW 6.9 mph - N/A   Mostly Cloudy
5:00 PM 62.6 °F 48.2 °F 59% 30.48 in 6.2 mi NW 9.2 mph - N/A   Mostly Cloudy
5:30 PM 64.4 °F 48.2 °F 56% 30.48 in 6.2 mi WNW 10.4 mph - N/A   Mostly Cloudy
6:00 PM 62.6 °F 48.2 °F 59% 30.48 in 6.2 mi WNW 11.5 mph - N/A   Mostly Cloudy
6:30 PM 62.6 °F 50.0 °F 63% 30.48 in 6.2 mi WNW 9.2 mph - N/A   Mostly Cloudy
7:00 PM 63 °F 47 °F 45% 30.49 in 25 mi West 8.9 mph - -   Mostly Cloudy
7:00 PM 62.6 °F 48.2 °F 59% 30.48 in 6.2 mi West 9.2 mph - N/A   Mostly Cloudy
7:30 PM 62.6 °F 48.2 °F 59% 30.48 in 6.2 mi WNW 12.7 mph - N/A   Mostly Cloudy
8:00 PM 60.8 °F 48.2 °F 63% 30.48 in 6.2 mi West 8.1 mph - N/A   Mostly Cloudy
8:30 PM 59.0 °F 48.2 °F 67% 30.45 in 6.2 mi West 8.1 mph - N/A   Mostly Cloudy
9:00 PM 57.2 °F 48.2 °F 72% 30.48 in 6.2 mi West 8.1 mph - N/A   Mostly Cloudy
9:30 PM 55.4 °F 48.2 °F 77% 30.48 in - West 6.9 mph - N/A   Clear
10:00 PM 55.4 °F 50.0 °F 82% 30.48 in 6.2 mi WNW 5.8 mph - N/A   Mostly Cloudy
10:30 PM 55.4 °F 50.0 °F 82% 30.48 in 6.2 mi WNW 8.1 mph - N/A   Mostly Cloudy
11:00 PM 55.4 °F 50.0 °F 82% 30.48 in 6.2 mi North 5.8 mph - N/A   Mostly Cloudy
11:30 PM 55.4 °F 50.0 °F 82% 30.48 in 6.2 mi North 5.8 mph - N/A   Mostly Cloudy